This is the latest recevied weather packets stored in our database for station/object K9RJT. If no packets are shown the sender has not sent any weather packets the latest 10 day(s).
| Time | Temp. | Humidity | Pressure | Rain* | Wind** | Luminosity | Snow |
|---|---|---|---|---|---|---|---|
| 1778023468 | 25° C | 34% | 1007.6 hPa | 0 mm | - | 425 W/m² | - |
| 1778023165 | 25.56° C | 34% | 1007.6 hPa | 0 mm | - | 95 W/m² | - |
| 1778022862 | 26.11° C | 33% | 1007.8 hPa | 0 mm | - | 168 W/m² | - |
| 1778022560 | 25.56° C | 34% | 1007.8 hPa | 0 mm | - | 168 W/m² | - |
| 1778022258 | 25.56° C | 34% | 1007.8 hPa | 0 mm | - | 153 W/m² | - |
| 1778021954 | 25.56° C | 34% | 1007.7 hPa | 0 mm | - | 188 W/m² | - |
| 1778021651 | 25.56° C | 35% | 1007.5 hPa | 0 mm | - | 170 W/m² | - |
| 1778021346 | 26.67° C | 34% | 1007.8 hPa | 0 mm | - | 127 W/m² | - |
| 1778021044 | 26.67° C | 31% | 1007.5 hPa | 0 mm | - | 226 W/m² | - |
| 1778020741 | 26.11° C | 31% | 1007.8 hPa | 0 mm | - | 545 W/m² | - |
| 1778020438 | 25.56° C | 34% | 1007.7 hPa | 0 mm | - | 114 W/m² | - |
| 1778020134 | 25.56° C | 34% | 1007.8 hPa | 0 mm | - | 107 W/m² | - |
| 1778019830 | 26.11° C | 34% | 1007.9 hPa | 0 mm | - | 105 W/m² | - |
| 1778019527 | 26.67° C | 31% | 1007.8 hPa | 0 mm | - | 564 W/m² | - |
| 1778019224 | 26.67° C | 32% | 1007.8 hPa | 0 mm | - | 576 W/m² | - |
| 1778018921 | 26.67° C | 32% | 1007.9 hPa | 0 mm | - | 525 W/m² | - |
| 1778018617 | 26.11° C | 31% | 1007.9 hPa | 0 mm | - | 596 W/m² | - |
| 1778018316 | 26.67° C | 32% | 1008 hPa | 0 mm | - | 589 W/m² | - |
| 1778018014 | 26.11° C | 33% | 1007.9 hPa | 0 mm | - | 585 W/m² | - |
| 1778017711 | 25.56° C | 33% | 1007.9 hPa | 0 mm | - | 611 W/m² | - |
| 1778017409 | 26.67° C | 31% | 1007.8 hPa | 0 mm | - | 176 W/m² | - |
| 1778017105 | 26.67° C | 32% | 1007.9 hPa | 0 mm | - | 630 W/m² | - |
| 1778016803 | 27.22° C | 31% | 1008.1 hPa | 0 mm | - | 635 W/m² | - |
| 1778016499 | 26.67° C | 31% | 1008 hPa | 0 mm | - | 637 W/m² | - |
| 1778016196 | 26.67° C | 31% | 1007.8 hPa | 0 mm | - | 657 W/m² | - |
* Rain latest hour (hover to see other rain measurements)
** Current wind speed in m/s (hover to see current wind gust speed)